Flag for U.S.A. Weather past 2 weeks in Jacksonville, Florida, U.S.A.

Now
78 °F

Broken clouds.


Feels Like: 80 °F
Forecast: 68 / 82 °F
Wind: 13 mph from South

Location: Jacksonville Naval Air Station

Current Time: Apr 19, 2015 at 9:16:00 PM

Latest Report: Apr 19, 2015 at 7:53 PM


Visibility: 10 mi

Pressure: 29.83 "Hg

Humidity: 60%

Dew point: 63 °F

Location of JacksonvilleLocation

Historic Weather in Jacksonville — Graph

°F

Jacksonville temperature yesterday

Maximum temperature yesterday: 92 °F (at 4:53 PM)
Minimum temperature yesterday: 72 °F (at 2:53 AM)
Average temperature yesterday: 79 °F

Past Weeks' High & Low Weather Summary

 TemperatureHumidityPressure
High92 °F (Apr 18, 4:53 PM)88% (Apr 13, 5:53 AM)30.23 "Hg (Apr 13, 5:53 AM)
Low67 °F (Apr 5, 9:53 PM)37% (Apr 8, 5:53 PM)29.83 "Hg (Apr 19, 7:53 PM)
Average77 °F71%30.09 "Hg
* Reported Apr 4 7:53 PM — Apr 19 7:53 PM, Jacksonville, Weather by CustomWeather, © 2015

Note: Actual official high and low records may vary slightly from our data, if they occured in-between our weather recording intervals... More about our weather records

Advertising

Jacksonville weather history for previous 24 hours

 ConditionsComfort  
Time TempWeatherWind HumidityBarometerVisibility
7:53 PM
Sun, Apr 19
78 °FBroken clouds.13 mph60%29.83 "Hg10 mi
6:53 PM78 °FMostly cloudy.7 mph60%29.84 "Hg10 mi
5:53 PM82 °FMore clouds than sun.22 mph51%29.86 "Hg10 mi
4:53 PM81 °FThunderstorms. Cloudy.15 mph69%29.84 "Hg10 mi
3:53 PM90 °FMostly cloudy.15 mph43%29.84 "Hg10 mi
2:53 PM91 °FMore clouds than sun.15 mph42%29.85 "Hg10 mi
1:53 PM89 °FBroken clouds.13 mph48%29.87 "Hg10 mi
12:53 PM88 °FBroken clouds.9 mph52%29.89 "Hg10 mi
11:53 AM85 °FBroken clouds.12 mph57%29.90 "Hg10 mi
10:53 AM82 °FPartly sunny.12 mph70%29.90 "Hg10 mi
9:53 AM80 °FBroken clouds.10 mph76%29.89 "Hg10 mi
8:53 AM76 °FBroken clouds.9 mph85%29.85 "Hg8 mi
7:53 AM77 °FMostly cloudy.6 mph82%29.92 "Hg9 mi
6:53 AM76 °FMostly cloudy.3 mph85%29.93 "Hg10 mi
5:53 AM76 °FMostly cloudy.5 mph85%29.93 "Hg10 mi
4:53 AM76 °FMostly cloudy.5 mph82%29.92 "Hg10 mi
3:53 AM76 °FMostly cloudy.5 mph82%29.93 "Hg10 mi
2:53 AM76 °FMostly cloudy.8 mph82%29.92 "Hg10 mi
1:53 AM76 °FMostly cloudy.7 mph82%29.93 "Hg10 mi
12:53 AM76 °FMostly cloudy.6 mph82%29.95 "Hg10 mi
11:53 PM
Sat, Apr 18
76 °FPassing clouds.6 mph82%29.96 "Hg10 mi
10:53 PM75 °FMostly cloudy.8 mph88%29.98 "Hg10 mi
9:53 PM76 °FPartly cloudy.5 mph85%29.97 "Hg10 mi
Weather by CustomWeather, © 2015

See weather overviewHow to use our weather pages